Precipitable_Water
1.63 1.60 1.69 1.69 1.67 1.62 1.57 1.52 1.50 1.51 1.52 1.56 1.55 1.53 1.49 1.47 1.48 1.47 1.41 1.34 1.34 1.33 1.27 1.17 1.11 1.10 1.11 1.15 1.17 1.20 1.20 1.16 1.09 1.05 1.04 1.04 1.04 1.06 1.08 1.09 1.10 1.13 1.14 1.15 1.17 1.20 1.21 1.17 1.10 1.02 0.96 0.92 0.89 0.85 0.82 0.82 0.83 0.81 0.82 0.91 0.97 0.96 0.95 0.96 0.98 1.00 1.03 1.06 1.06 1.00 0.96 0.96 0.95 0.90 0.85 0.83 0.81 0.80 0.78 0.77 0.78 0.79 0.79 0.79 0.80
1.59 1.65 1.69 1.68 1.65 1.63 1.59 1.54 1.50 1.50 1.50 1.49 1.52 1.53 1.50 1.49 1.52 1.50 1.43 1.36 1.35 1.32 1.27 1.22 1.16 1.13 1.12 1.14 1.15 1.20 1.22 1.20 1.16 1.11 1.08 1.08 1.09 1.07 1.07 1.07 1.09 1.11 1.11 1.12 1.14 1.15 1.18 1.14 1.06 1.00 0.95 0.92 0.88 0.86 0.84 0.84 0.84 0.81 0.81 0.88 0.89 0.89 0.91 0.94 0.97 1.01 1.07 1.09 1.10 1.09 1.03 0.96 0.94 0.90 0.87 0.83 0.81 0.80 0.78 0.78 0.77 0.76 0.77 0.78 0.80
1.67 1.64 1.66 1.64 1.63 1.62 1.60 1.53 1.48 1.46 1.48 1.45 1.50 1.54 1.53 1.52 1.53 1.52 1.46 1.39 1.37 1.35 1.30 1.24 1.19 1.16 1.19 1.21 1.21 1.21 1.23 1.23 1.22 1.20 1.14 1.10 1.11 1.13 1.14 1.14 1.11 1.07 1.07 1.11 1.11 1.09 1.10 1.07 1.03 0.95 0.92 0.91 0.87 0.85 0.84 0.85 0.83 0.79 0.77 0.82 0.86 0.89 0.91 0.94 0.97 1.00 1.03 1.03 1.06 1.03 0.97 0.94 0.92 0.90 0.86 0.82 0.78 0.78 0.78 0.77 0.74 0.73 0.75 0.76 0.77
1.59 1.60 1.63 1.62 1.60 1.58 1.54 1.47 1.43 1.45 1.47 1.45 1.49 1.54 1.55 1.55 1.54 1.54 1.49 1.41 1.38 1.38 1.36 1.32 1.28 1.24 1.22 1.24 1.26 1.24 1.25 1.25 1.24 1.25 1.25 1.21 1.15 1.14 1.16 1.16 1.13 1.08 1.07 1.08 1.08 1.07 1.07 1.06 1.02 0.92 0.88 0.87 0.86 0.83 0.83 0.85 0.81 0.79 0.78 0.83 0.90 0.91 0.91 0.92 0.94 0.95 0.97 0.99 0.99 0.97 0.96 0.91 0.88 0.85 0.85 0.84 0.84 0.82 0.80 0.78 0.76 0.75 0.76 0.75 0.77
1.56 1.58 1.61 1.61 1.58 1.53 1.50 1.46 1.43 1.43 1.47 1.46 1.53 1.57 1.57 1.58 1.56 1.56 1.52 1.45 1.42 1.42 1.41 1.38 1.35 1.33 1.30 1.28 1.27 1.27 1.27 1.24 1.24 1.28 1.31 1.29 1.29 1.27 1.23 1.19 1.18 1.13 1.08 1.08 1.08 1.05 1.06 1.07 1.06 0.93 0.85 0.85 0.84 0.82 0.81 0.82 0.83 0.82 0.79 0.82 0.89 0.90 0.88 0.89 0.90 0.91 0.94 0.94 0.93 0.92 0.92 0.89 0.86 0.87 0.85 0.84 0.80 0.79 0.79 0.78 0.78 0.78 0.78 0.77 0.78
1.54 1.59 1.61 1.60 1.56 1.54 1.50 1.46 1.43 1.40 1.45 1.51 1.57 1.63 1.62 1.60 1.57 1.56 1.55 1.49 1.44 1.44 1.45 1.43 1.41 1.38 1.35 1.37 1.36 1.32 1.28 1.26 1.25 1.25 1.29 1.32 1.35 1.34 1.35 1.27 1.20 1.18 1.14 1.10 1.10 1.09 1.08 1.12 1.09 0.94 0.81 0.84 0.84 0.83 0.83 0.87 0.89 0.89 0.87 0.90 0.95 0.91 0.88 0.87 0.86 0.86 0.85 0.85 0.86 0.85 0.87 0.89 0.86 0.85 0.85 0.85 0.85 0.82 0.78 0.77 0.77 0.78 0.77 0.77 0.78
1.56 1.60 1.61 1.57 1.54 1.51 1.47 1.44 1.39 1.34 1.37 1.47 1.59 1.64 1.63 1.61 1.58 1.56 1.59 1.54 1.47 1.44 1.46 1.45 1.46 1.45 1.39 1.36 1.36 1.35 1.34 1.33 1.26 1.22 1.23 1.32 1.38 1.39 1.39 1.36 1.31 1.24 1.19 1.18 1.15 1.15 1.12 1.17 1.16 0.98 0.81 0.83 0.86 0.87 0.90 0.93 0.94 0.95 0.95 0.96 1.00 0.97 0.95 0.94 0.90 0.87 0.84 0.83 0.84 0.87 0.86 0.88 0.89 0.89 0.86 0.84 0.83 0.81 0.78 0.77 0.77 0.77 0.74 0.74 0.75
1.61 1.60 1.56 1.53 1.53 1.53 1.47 1.42 1.37 1.37 1.40 1.44 1.52 1.59 1.60 1.57 1.57 1.58 1.57 1.55 1.49 1.44 1.45 1.46 1.45 1.50 1.46 1.40 1.38 1.37 1.34 1.34 1.37 1.29 1.21 1.28 1.40 1.42 1.42 1.41 1.39 1.34 1.25 1.20 1.18 1.18 1.19 1.25 1.22 1.03 0.83 0.81 0.87 0.91 0.92 0.95 0.96 0.97 0.97 1.00 1.04 1.07 1.04 0.98 0.92 0.89 0.86 0.83 0.83 0.86 0.88 0.88 0.86 0.82 0.84 0.85 0.84 0.83 0.81 0.77 0.75 0.75 0.74 0.75 0.74
1.55 1.56 1.54 1.53 1.53 1.46 1.42 1.40 1.41 1.38 1.40 1.41 1.43 1.51 1.57 1.55 1.51 1.56 1.55 1.53 1.51 1.45 1.42 1.45 1.44 1.47 1.51 1.44 1.40 1.37 1.38 1.37 1.35 1.38 1.30 1.25 1.38 1.46 1.46 1.45 1.44 1.41 1.33 1.23 1.20 1.17 1.21 1.26 1.24 1.08 0.85 0.80 0.86 0.90 0.94 0.95 0.97 0.98 0.98 1.01 1.06 1.08 1.06 1.03 0.97 0.91 0.88 0.83 0.81 0.83 0.85 0.88 0.90 0.90 0.89 0.85 0.85 0.82 0.80 0.77 0.74 0.73 0.74 0.74 0.74
1.58 1.55 1.54 1.51 1.47 1.40 1.35 1.39 1.42 1.43 1.43 1.41 1.41 1.45 1.52 1.52 1.49 1.55 1.56 1.54 1.53 1.47 1.45 1.45 1.46 1.44 1.47 1.47 1.46 1.41 1.38 1.39 1.40 1.40 1.33 1.23 1.27 1.41 1.44 1.47 1.45 1.42 1.37 1.27 1.19 1.15 1.18 1.26 1.24 1.13 0.86 0.79 0.87 0.92 0.94 0.95 0.98 0.97 0.97 1.00 1.04 1.06 1.05 1.03 0.99 0.94 0.88 0.84 0.79 0.79 0.82 0.86 0.88 0.87 0.88 0.83 0.80 0.77 0.73 0.71 0.71 0.72 0.75 0.74 0.74
1.57 1.52 1.49 1.45 1.41 1.38 1.39 1.44 1.46 1.45 1.43 1.41 1.39 1.43 1.46 1.48 1.48 1.54 1.55 1.56 1.53 1.50 1.50 1.50 1.52 1.44 1.47 1.47 1.46 1.43 1.38 1.41 1.41 1.43 1.38 1.27 1.22 1.32 1.41 1.45 1.45 1.42 1.37 1.28 1.20 1.12 1.13 1.24 1.26 1.15 0.92 0.76 0.81 0.90 0.95 0.97 0.97 0.98 0.98 1.00 1.03 1.05 1.05 1.05 0.98 0.94 0.92 0.88 0.82 0.82 0.82 0.81 0.85 0.87 0.86 0.82 0.78 0.75 0.73 0.74 0.72 0.72 0.73 0.73 0.73
1.53 1.52 1.48 1.45 1.42 1.41 1.43 1.46 1.47 1.45 1.42 1.40 1.40 1.40 1.45 1.46 1.47 1.53 1.55 1.54 1.57 1.57 1.53 1.54 1.52 1.46 1.46 1.48 1.46 1.47 1.42 1.40 1.40 1.45 1.46 1.37 1.26 1.27 1.32 1.37 1.38 1.39 1.34 1.27 1.16 1.09 1.09 1.19 1.26 1.15 0.94 0.83 0.71 0.74 0.87 0.94 0.96 0.97 0.98 0.98 0.99 1.02 1.08 1.06 0.99 0.95 0.94 0.88 0.83 0.84 0.82 0.77 0.82 0.87 0.88 0.85 0.81 0.75 0.71 0.70 0.74 0.74 0.73 0.74 0.73
1.48 1.48 1.49 1.47 1.45 1.44 1.45 1.45 1.43 1.42 1.40 1.38 1.38 1.39 1.39 1.42 1.45 1.50 1.52 1.57 1.62 1.58 1.55 1.55 1.54 1.49 1.49 1.50 1.46 1.47 1.46 1.44 1.44 1.45 1.49 1.42 1.32 1.25 1.24 1.30 1.31 1.31 1.27 1.24 1.13 1.07 1.07 1.11 1.24 1.14 0.98 0.90 0.79 0.70 0.79 0.87 0.89 0.90 0.91 0.92 0.92 1.02 1.10 1.07 0.99 0.95 0.93 0.89 0.85 0.83 0.79 0.77 0.81 0.87 0.88 0.87 0.83 0.76 0.71 0.74 0.76 0.76 0.75 0.74 0.72
1.39 1.43 1.45 1.47 1.46 1.46 1.44 1.42 1.38 1.38 1.38 1.37 1.37 1.36 1.36 1.40 1.41 1.43 1.45 1.53 1.56 1.59 1.57 1.54 1.52 1.49 1.49 1.51 1.52 1.51 1.50 1.46 1.48 1.47 1.47 1.46 1.38 1.30 1.22 1.21 1.22 1.19 1.23 1.24 1.12 1.08 1.08 1.14 1.21 1.17 1.04 0.94 0.87 0.78 0.84 0.85 0.87 0.87 0.87 0.89 0.92 0.98 1.06 1.07 1.03 0.98 0.95 0.91 0.87 0.81 0.77 0.79 0.82 0.86 0.88 0.86 0.85 0.81 0.79 0.79 0.79 0.78 0.76 0.74 0.72
1.34 1.38 1.43 1.46 1.47 1.44 1.40 1.37 1.35 1.33 1.34 1.34 1.34 1.34 1.33 1.34 1.35 1.35 1.36 1.41 1.43 1.59 1.53 1.50 1.48 1.49 1.48 1.52 1.55 1.52 1.50 1.48 1.48 1.48 1.45 1.43 1.38 1.30 1.19 1.14 1.15 1.14 1.14 1.16 1.09 1.06 1.06 1.09 1.19 1.21 1.08 0.97 0.95 0.82 0.87 0.88 0.88 0.88 0.89 0.95 0.97 0.98 1.01 1.06 1.05 1.02 0.99 0.96 0.89 0.82 0.79 0.79 0.82 0.84 0.86 0.88 0.86 0.83 0.81 0.81 0.78 0.77 0.76 0.72 0.72
1.38 1.36 1.38 1.37 1.39 1.40 1.37 1.33 1.31 1.30 1.31 1.33 1.35 1.36 1.33 1.32 1.31 1.31 1.32 1.37 1.44 1.48 1.46 1.46 1.46 1.46 1.47 1.52 1.50 1.47 1.46 1.46 1.43 1.44 1.40 1.37 1.32 1.19 1.15 1.12 1.17 1.17 1.13 1.07 1.05 1.03 1.02 1.06 1.15 1.20 1.12 1.02 0.99 0.86 0.84 0.88 0.91 0.94 0.97 0.98 0.97 0.96 0.98 1.05 1.03 1.04 1.03 0.97 0.90 0.86 0.80 0.78 0.79 0.83 0.86 0.87 0.86 0.83 0.82 0.80 0.79 0.76 0.73 0.71 0.71
1.33 1.33 1.28 1.28 1.32 1.34 1.33 1.30 1.26 1.24 1.27 1.32 1.34 1.35 1.33 1.33 1.32 1.30 1.31 1.35 1.37 1.39 1.40 1.41 1.42 1.42 1.44 1.48 1.44 1.41 1.42 1.43 1.38 1.38 1.36 1.33 1.24 1.19 1.23 1.25 1.22 1.17 1.11 1.05 1.03 1.00 0.99 1.02 1.08 1.13 1.10 1.07 1.01 0.90 0.86 0.91 0.97 0.99 0.98 0.96 0.95 0.94 0.96 1.05 1.03 1.03 1.02 0.97 0.94 0.86 0.76 0.79 0.81 0.82 0.86 0.86 0.84 0.82 0.79 0.78 0.79 0.75 0.73 0.73 0.71
1.24 1.24 1.21 1.24 1.25 1.26 1.24 1.23 1.19 1.18 1.21 1.25 1.29 1.29 1.31 1.32 1.30 1.30 1.31 1.33 1.36 1.38 1.40 1.41 1.37 1.36 1.38 1.40 1.37 1.35 1.38 1.40 1.40 1.36 1.32 1.27 1.22 1.24 1.27 1.27 1.21 1.09 1.00 1.01 1.06 1.00 0.98 1.01 1.00 1.05 1.04 1.06 1.01 0.95 0.91 0.94 0.99 1.00 0.97 0.96 0.94 0.94 0.98 1.04 1.00 1.02 1.02 1.01 0.95 0.84 0.82 0.81 0.85 0.83 0.84 0.85 0.84 0.83 0.82 0.80 0.78 0.75 0.73 0.71 0.70
1.14 1.16 1.19 1.19 1.19 1.18 1.15 1.13 1.09 1.09 1.12 1.14 1.20 1.27 1.29 1.29 1.30 1.31 1.31 1.32 1.35 1.35 1.37 1.37 1.35 1.33 1.37 1.36 1.30 1.32 1.36 1.41 1.40 1.35 1.30 1.23 1.26 1.29 1.27 1.27 1.21 1.10 1.04 0.99 1.05 1.02 0.98 0.97 0.96 0.98 0.98 1.01 1.00 0.98 0.89 0.92 0.98 0.99 0.97 0.97 0.94 0.94 0.98 1.01 1.01 0.98 1.02 0.99 0.93 0.90 0.87 0.85 0.82 0.83 0.83 0.85 0.84 0.83 0.82 0.79 0.75 0.74 0.74 0.73 0.72
1.04 1.06 1.07 1.09 1.09 1.05 1.02 1.01 1.02 1.04 1.05 1.07 1.11 1.18 1.24 1.27 1.31 1.30 1.32 1.36 1.39 1.38 1.34 1.37 1.34 1.37 1.36 1.31 1.31 1.36 1.40 1.44 1.42 1.33 1.24 1.30 1.30 1.36 1.34 1.27 1.29 1.17 1.05 1.00 0.98 0.98 0.96 0.94 0.95 0.96 0.93 0.94 0.97 0.96 0.89 0.88 0.96 0.98 0.96 0.97 0.95 0.95 0.98 1.01 1.02 0.95 0.99 0.97 0.94 0.91 0.91 0.86 0.82 0.80 0.83 0.85 0.84 0.82 0.80 0.80 0.78 0.75 0.73 0.72 0.70
0.94 0.96 0.97 0.99 1.02 0.99 0.96 0.97 0.98 1.01 1.03 1.05 1.09 1.11 1.15 1.21 1.24 1.29 1.30 1.33 1.34 1.30 1.29 1.45 1.43 1.40 1.36 1.32 1.41 1.43 1.43 1.42 1.41 1.29 1.25 1.34 1.35 1.42 1.38 1.28 1.32 1.25 1.11 1.01 0.95 0.93 0.91 0.92 0.94 0.94 0.89 0.88 0.94 0.94 0.91 0.84 0.91 0.95 0.97 0.98 0.96 0.97 0.99 1.01 1.01 0.94 0.92 0.94 0.92 0.89 0.87 0.85 0.83 0.79 0.78 0.80 0.80 0.79 0.79 0.79 0.79 0.76 0.71 0.69 0.67
0.81 0.87 0.93 0.95 0.93 0.95 0.95 0.98 1.02 1.02 1.05 1.06 1.09 1.12 1.11 1.14 1.17 1.22 1.26 1.31 1.28 1.32 1.37 1.41 1.47 1.51 1.40 1.37 1.41 1.47 1.48 1.46 1.46 1.36 1.25 1.39 1.40 1.42 1.41 1.35 1.36 1.29 1.15 1.04 0.93 0.86 0.85 0.88 0.91 0.92 0.87 0.84 0.91 0.94 0.92 0.85 0.85 0.92 0.96 0.99 0.96 0.96 0.98 0.99 0.98 0.91 0.91 0.95 0.90 0.88 0.85 0.83 0.81 0.79 0.74 0.75 0.75 0.77 0.75 0.74 0.79 0.77 0.72 0.69 0.65
0.70 0.77 0.84 0.92 0.92 0.92 0.95 0.97 1.02 1.05 1.07 1.08 1.11 1.11 1.10 1.10 1.15 1.20 1.21 1.19 1.19 1.25 1.32 1.33 1.38 1.40 1.48 1.33 1.38 1.42 1.39 1.46 1.52 1.55 1.40 1.37 1.42 1.46 1.47 1.45 1.38 1.31 1.15 1.08 1.01 0.90 0.83 0.82 0.84 0.87 0.88 0.81 0.81 0.91 0.91 0.84 0.79 0.88 0.94 0.95 0.93 0.95 0.95 0.96 0.95 0.94 0.93 0.92 0.89 0.91 0.86 0.83 0.80 0.78 0.73 0.71 0.69 0.74 0.74 0.75 0.78 0.77 0.73 0.69 0.65
0.68 0.73 0.79 0.91 0.92 0.91 0.94 0.97 0.98 1.02 1.06 1.07 1.08 1.10 1.11 1.11 1.13 1.19 1.18 1.09 1.18 1.17 1.19 1.32 1.34 1.31 1.36 1.34 1.46 1.30 1.41 1.46 1.54 1.59 1.53 1.47 1.47 1.46 1.46 1.45 1.38 1.30 1.20 1.13 1.07 0.96 0.87 0.82 0.80 0.80 0.83 0.81 0.76 0.82 0.86 0.82 0.77 0.83 0.90 0.92 0.91 0.93 0.91 0.93 0.96 0.97 0.93 0.91 0.90 0.90 0.86 0.83 0.80 0.77 0.73 0.68 0.67 0.69 0.74 0.73 0.74 0.74 0.73 0.71 0.68
0.67 0.73 0.80 0.81 0.86 0.89 0.91 0.95 1.00 1.01 1.03 1.06 1.06 1.07 1.09 1.12 1.13 1.17 1.16 1.09 1.08 1.06 1.19 1.29 1.29 1.33 1.34 1.37 1.30 1.28 1.36 1.47 1.51 1.56 1.58 1.53 1.52 1.59 1.55 1.43 1.38 1.31 1.24 1.14 1.09 1.03 0.93 0.84 0.81 0.79 0.79 0.79 0.78 0.78 0.81 0.78 0.76 0.79 0.86 0.88 0.89 0.93 0.92 0.93 0.94 0.94 0.95 0.93 0.91 0.89 0.86 0.83 0.79 0.76 0.71 0.67 0.66 0.67 0.71 0.70 0.71 0.71 0.69 0.71 0.71
0.57 0.61 0.69 0.76 0.85 0.91 0.94 0.98 1.02 1.03 1.04 1.04 1.03 1.04 1.07 1.08 1.12 1.16 1.18 1.14 1.06 1.05 1.16 1.26 1.24 1.29 1.30 1.30 1.32 1.36 1.39 1.46 1.52 1.57 1.59 1.61 1.54 1.48 1.53 1.38 1.30 1.27 1.25 1.16 1.12 1.04 0.90 0.83 0.79 0.77 0.79 0.83 0.84 0.86 0.87 0.82 0.75 0.76 0.81 0.84 0.87 0.92 0.93 0.93 0.92 0.91 0.95 0.95 0.91 0.89 0.87 0.84 0.81 0.76 0.72 0.67 0.66 0.67 0.70 0.69 0.71 0.69 0.66 0.69 0.72
0.51 0.52 0.56 0.63 0.73 0.84 0.91 0.96 0.94 0.95 0.96 0.98 0.99 1.00 1.03 1.09 1.13 1.17 1.17 1.12 1.10 1.04 1.10 1.19 1.21 1.23 1.26 1.32 1.35 1.37 1.40 1.47 1.55 1.59 1.59 1.64 1.60 1.56 1.49 1.34 1.26 1.23 1.23 1.17 1.10 1.01 0.87 0.83 0.83 0.79 0.78 0.80 0.88 0.91 0.91 0.86 0.78 0.71 0.76 0.81 0.90 0.93 0.94 0.92 0.90 0.89 0.93 0.94 0.93 0.91 0.87 0.84 0.81 0.78 0.74 0.68 0.65 0.67 0.69 0.72 0.70 0.71 0.67 0.68 0.69
0.52 0.54 0.56 0.58 0.62 0.66 0.69 0.74 0.81 0.89 0.91 0.95 0.93 0.93 0.97 1.04 1.10 1.15 1.17 1.17 1.11 1.04 1.06 1.14 1.19 1.22 1.29 1.34 1.38 1.41 1.44 1.49 1.50 1.54 1.53 1.60 1.62 1.61 1.56 1.43 1.35 1.29 1.22 1.19 1.10 1.03 0.93 0.94 0.93 0.91 0.88 0.85 0.86 0.90 0.91 0.88 0.80 0.73 0.79 0.85 0.90 0.94 0.94 0.92 0.89 0.88 0.92 0.91 0.92 0.90 0.86 0.82 0.82 0.79 0.75 0.70 0.67 0.67 0.70 0.71 0.72 0.72 0.67 0.65 0.66
0.48 0.49 0.51 0.52 0.58 0.63 0.64 0.64 0.67 0.78 0.91 0.92 0.90 0.92 0.94 0.98 1.05 1.09 1.13 1.18 1.13 1.07 1.09 1.17 1.15 1.22 1.30 1.34 1.38 1.40 1.45 1.49 1.51 1.52 1.55 1.57 1.59 1.60 1.52 1.47 1.47 1.44 1.32 1.25 1.16 1.07 1.03 0.99 0.96 0.94 0.90 0.86 0.87 0.87 0.91 0.89 0.85 0.81 0.84 0.88 0.90 0.92 0.93 0.93 0.90 0.93 0.92 0.92 0.92 0.90 0.86 0.82 0.81 0.79 0.78 0.76 0.73 0.69 0.70 0.70 0.73 0.71 0.69 0.64 0.62
0.47 0.47 0.46 0.47 0.52 0.57 0.59 0.60 0.69 0.77 0.86 0.86 0.85 0.85 0.87 0.89 1.00 1.08 1.14 1.17 1.14 1.12 1.13 1.16 1.19 1.22 1.29 1.35 1.39 1.42 1.42 1.45 1.49 1.54 1.53 1.53 1.56 1.59 1.49 1.41 1.45 1.50 1.46 1.33 1.28 1.18 1.11 1.12 1.04 0.98 0.94 0.89 0.87 0.89 0.89 0.87 0.86 0.83 0.79 0.86 0.91 0.94 0.94 0.94 0.94 0.95 0.97 0.99 0.99 0.95 0.90 0.86 0.82 0.80 0.80 0.81 0.79 0.75 0.71 0.68 0.67 0.71 0.69 0.65 0.61
0.49 0.47 0.47 0.49 0.52 0.52 0.54 0.59 0.69 0.76 0.80 0.80 0.82 0.80 0.81 0.80 0.85 1.01 1.15 1.16 1.17 1.18 1.18 1.17 1.18 1.23 1.30 1.35 1.38 1.40 1.41 1.39 1.45 1.51 1.49 1.51 1.53 1.51 1.43 1.43 1.45 1.48 1.52 1.48 1.45 1.37 1.30 1.23 1.18 1.09 1.03 0.98 0.92 0.92 0.90 0.85 0.83 0.86 0.83 0.79 0.80 0.85 0.83 0.89 0.94 0.98 0.97 0.99 0.99 0.97 0.95 0.92 0.88 0.85 0.84 0.82 0.82 0.81 0.77 0.73 0.68 0.65 0.68 0.70 0.65
0.47 0.47 0.48 0.50 0.49 0.50 0.52 0.56 0.64 0.71 0.71 0.72 0.77 0.78 0.78 0.78 0.82 0.87 0.95 1.09 1.19 1.22 1.22 1.21 1.20 1.23 1.28 1.32 1.38 1.42 1.41 1.38 1.41 1.48 1.45 1.41 1.44 1.49 1.52 1.49 1.47 1.50 1.56 1.55 1.55 1.52 1.44 1.38 1.38 1.33 1.24 1.14 1.07 1.01 0.97 0.89 0.82 0.83 0.85 0.81 0.80 0.79 0.79 0.81 0.87 0.93 0.96 0.98 1.00 0.99 0.97 0.95 0.92 0.88 0.88 0.86 0.83 0.82 0.82 0.79 0.74 0.68 0.66 0.67 0.67
0.50 0.50 0.49 0.48 0.47 0.49 0.53 0.57 0.62 0.66 0.68 0.68 0.70 0.74 0.75 0.75 0.76 0.83 0.91 0.96 0.99 1.03 1.12 1.20 1.21 1.25 1.30 1.30 1.34 1.38 1.40 1.35 1.35 1.33 1.36 1.38 1.40 1.43 1.46 1.49 1.52 1.54 1.57 1.58 1.60 1.60 1.55 1.45 1.44 1.43 1.37 1.24 1.16 1.08 1.03 0.96 0.89 0.84 0.81 0.79 0.80 0.77 0.80 0.78 0.79 0.83 0.87 0.93 0.99 0.99 0.97 0.96 0.93 0.91 0.90 0.90 0.86 0.83 0.82 0.82 0.78 0.73 0.69 0.66 0.65
0.52 0.52 0.50 0.47 0.50 0.52 0.54 0.58 0.59 0.61 0.63 0.66 0.68 0.67 0.67 0.68 0.70 0.70 0.74 0.86 0.94 0.97 0.96 1.00 1.10 1.20 1.29 1.29 1.28 1.33 1.37 1.33 1.32 1.32 1.35 1.39 1.41 1.41 1.44 1.49 1.53 1.53 1.56 1.59 1.59 1.60 1.55 1.53 1.51 1.47 1.42 1.33 1.23 1.10 1.03 0.93 0.93 0.90 0.85 0.84 0.79 0.77 0.79 0.80 0.79 0.82 0.86 0.86 0.91 0.95 0.96 0.96 0.94 0.92 0.91 0.91 0.90 0.86 0.82 0.82 0.81 0.77 0.73 0.68 0.64
0.54 0.50 0.47 0.47 0.48 0.50 0.51 0.53 0.55 0.56 0.57 0.57 0.56 0.54 0.54 0.54 0.56 0.59 0.64 0.72 0.80 0.83 0.87 0.89 0.94 0.96 1.02 1.09 1.27 1.33 1.30 1.30 1.32 1.33 1.35 1.36 1.40 1.44 1.49 1.53 1.56 1.56 1.54 1.55 1.56 1.59 1.59 1.55 1.56 1.47 1.46 1.36 1.36 1.26 1.08 0.93 0.91 0.87 0.85 0.83 0.79 0.81 0.79 0.76 0.80 0.81 0.84 0.86 0.89 0.90 0.94 0.95 0.94 0.91 0.90 0.90 0.91 0.88 0.84 0.82 0.81 0.79 0.76 0.72 0.65
0.52 0.51 0.49 0.48 0.46 0.48 0.46 0.47 0.53 0.52 0.50 0.48 0.48 0.50 0.50 0.50 0.54 0.55 0.58 0.66 0.72 0.73 0.76 0.77 0.82 0.89 0.95 0.95 1.10 1.21 1.27 1.28 1.27 1.31 1.30 1.32 1.32 1.34 1.46 1.56 1.58 1.56 1.57 1.59 1.60 1.57 1.56 1.55 1.56 1.57 1.45 1.40 1.33 1.22 1.14 1.00 0.95 0.86 0.84 0.84 0.85 0.85 0.81 0.78 0.78 0.80 0.84 0.87 0.86 0.88 0.90 0.92 0.94 0.91 0.90 0.88 0.87 0.87 0.85 0.83 0.82 0.81 0.77 0.74 0.70
0.56 0.55 0.52 0.51 0.47 0.45 0.43 0.42 0.47 0.47 0.44 0.43 0.46 0.45 0.41 0.41 0.49 0.52 0.54 0.61 0.61 0.61 0.65 0.74 0.77 0.86 0.90 0.91 0.99 1.08 1.16 1.32 1.39 1.37 1.30 1.30 1.34 1.35 1.45 1.45 1.57 1.56 1.55 1.55 1.52 1.55 1.51 1.41 1.43 1.49 1.52 1.42 1.39 1.27 1.17 1.07 1.01 0.93 0.89 0.85 0.86 0.85 0.81 0.78 0.77 0.79 0.83 0.83 0.84 0.84 0.87 0.89 0.91 0.93 0.92 0.90 0.88 0.85 0.85 0.84 0.85 0.84 0.81 0.77 0.74
0.59 0.58 0.55 0.51 0.46 0.43 0.39 0.37 0.38 0.41 0.42 0.42 0.43 0.40 0.40 0.42 0.47 0.51 0.52 0.54 0.58 0.62 0.67 0.73 0.75 0.78 0.80 0.82 0.87 0.94 1.02 1.13 1.34 1.40 1.37 1.35 1.37 1.36 1.40 1.45 1.52 1.55 1.51 1.53 1.46 1.49 1.41 1.42 1.37 1.41 1.47 1.46 1.41 1.33 1.22 1.20 1.10 0.99 0.94 0.90 0.87 0.84 0.80 0.79 0.78 0.78 0.77 0.76 0.81 0.82 0.84 0.87 0.88 0.88 0.90 0.90 0.90 0.88 0.86 0.86 0.84 0.84 0.82 0.80 0.78
0.61 0.60 0.57 0.51 0.45 0.42 0.37 0.36 0.35 0.37 0.39 0.44 0.46 0.48 0.49 0.49 0.50 0.47 0.44 0.43 0.48 0.56 0.63 0.68 0.71 0.74 0.73 0.76 0.80 0.84 0.90 0.96 1.06 1.30 1.38 1.38 1.33 1.34 1.39 1.47 1.52 1.56 1.48 1.48 1.43 1.37 1.31 1.33 1.32 1.38 1.50 1.52 1.49 1.43 1.34 1.30 1.23 1.15 1.06 1.00 0.95 0.90 0.86 0.83 0.80 0.77 0.73 0.71 0.68 0.75 0.83 0.84 0.87 0.88 0.88 0.89 0.89 0.88 0.84 0.84 0.83 0.82 0.83 0.84 0.83
0.63 0.62 0.58 0.54 0.49 0.45 0.40 0.36 0.37 0.41 0.45 0.49 0.52 0.51 0.53 0.51 0.49 0.48 0.42 0.41 0.45 0.49 0.54 0.57 0.61 0.62 0.64 0.66 0.68 0.72 0.78 0.83 0.88 1.00 1.16 1.24 1.23 1.22 1.27 1.34 1.33 1.40 1.42 1.42 1.42 1.36 1.30 1.32 1.38 1.43 1.46 1.43 1.55 1.52 1.43 1.32 1.32 1.25 1.17 1.12 1.08 1.01 0.93 0.86 0.81 0.76 0.74 0.70 0.68 0.70 0.72 0.81 0.83 0.86 0.88 0.89 0.89 0.87 0.83 0.80 0.80 0.79 0.80 0.83 0.85
0.65 0.62 0.58 0.55 0.51 0.45 0.43 0.39 0.40 0.48 0.49 0.50 0.52 0.52 0.50 0.50 0.52 0.46 0.40 0.39 0.34 0.35 0.35 0.37 0.41 0.45 0.52 0.57 0.58 0.61 0.65 0.70 0.74 0.78 0.87 1.01 1.08 1.15 1.19 1.26 1.33 1.33 1.39 1.38 1.39 1.42 1.43 1.42 1.42 1.42 1.44 1.37 1.38 1.45 1.43 1.39 1.32 1.27 1.21 1.17 1.14 1.15 1.05 0.96 0.90 0.87 0.83 0.79 0.75 0.69 0.71 0.74 0.77 0.80 0.82 0.85 0.83 0.83 0.82 0.81 0.81 0.81 0.80 0.81 0.83
0.62 0.60 0.56 0.55 0.53 0.48 0.44 0.42 0.47 0.48 0.51 0.52 0.53 0.54 0.54 0.50 0.46 0.44 0.43 0.42 0.35 0.32 0.32 0.38 0.40 0.41 0.42 0.47 0.50 0.51 0.51 0.50 0.55 0.62 0.65 0.71 0.78 0.88 1.02 1.13 1.21 1.28 1.36 1.44 1.43 1.38 1.35 1.38 1.41 1.38 1.40 1.35 1.30 1.41 1.38 1.34 1.18 1.16 1.11 1.05 1.11 1.21 1.18 1.11 1.02 0.96 0.93 0.94 0.91 0.82 0.75 0.73 0.73 0.77 0.82 0.82 0.81 0.82 0.83 0.83 0.84 0.84 0.82 0.81 0.82
0.61 0.59 0.58 0.56 0.55 0.50 0.46 0.47 0.50 0.51 0.52 0.57 0.56 0.54 0.54 0.48 0.45 0.43 0.45 0.43 0.43 0.39 0.40 0.44 0.48 0.46 0.48 0.47 0.48 0.49 0.48 0.46 0.48 0.54 0.58 0.59 0.62 0.68 0.77 0.89 1.02 1.15 1.22 1.28 1.33 1.29 1.28 1.23 1.23 1.21 1.25 1.33 1.29 1.36 1.31 1.27 1.12 1.21 1.19 1.11 1.03 0.96 1.05 1.08 1.12 1.07 1.04 1.01 0.97 0.90 0.85 0.81 0.81 0.81 0.83 0.83 0.81 0.81 0.84 0.86 0.85 0.86 0.86 0.83 0.83
0.61 0.59 0.58 0.56 0.56 0.53 0.49 0.50 0.53 0.53 0.52 0.55 0.58 0.61 0.54 0.47 0.46 0.46 0.49 0.46 0.41 0.44 0.46 0.49 0.50 0.48 0.46 0.49 0.48 0.46 0.46 0.45 0.47 0.54 0.57 0.56 0.55 0.54 0.57 0.62 0.72 0.81 0.90 0.99 1.08 1.08 1.08 1.12 1.14 1.11 1.09 1.03 1.20 1.25 1.34 1.33 1.20 1.20 1.02 0.99 1.04 1.02 0.89 0.91 0.98 1.07 1.12 1.08 1.06 1.00 0.97 0.92 0.89 0.89 0.88 0.82 0.83 0.87 0.88 0.90 0.87 0.87 0.88 0.87 0.86
0.58 0.57 0.57 0.56 0.58 0.56 0.51 0.51 0.55 0.53 0.52 0.52 0.53 0.55 0.50 0.47 0.47 0.49 0.51 0.49 0.48 0.45 0.44 0.45 0.48 0.48 0.46 0.47 0.47 0.48 0.45 0.46 0.49 0.55 0.57 0.55 0.55 0.53 0.51 0.53 0.55 0.59 0.62 0.65 0.71 0.78 0.85 0.91 0.97 1.00 1.04 1.01 1.01 1.14 1.23 1.28 1.28 1.35 1.11 0.94 0.91 0.92 0.90 0.99 1.04 1.00 1.12 1.09 1.10 1.12 1.12 1.09 1.05 1.02 0.98 0.94 0.93 0.92 0.93 0.94 0.94 0.94 0.93 0.92 0.90
0.57 0.58 0.59 0.60 0.60 0.59 0.56 0.53 0.56 0.52 0.51 0.51 0.50 0.50 0.46 0.43 0.42 0.41 0.40 0.41 0.39 0.39 0.37 0.38 0.41 0.42 0.43 0.47 0.48 0.48 0.48 0.48 0.51 0.52 0.53 0.57 0.56 0.55 0.52 0.51 0.53 0.56 0.55 0.54 0.55 0.58 0.62 0.66 0.75 0.81 0.84 0.96 0.97 0.98 1.02 1.22 1.27 1.31 1.29 1.11 1.09 1.00 1.02 1.11 1.04 0.85 1.10 1.15 1.15 1.18 1.19 1.20 1.18 1.14 1.11 1.09 1.07 1.05 1.03 1.00 1.02 1.01 1.01 0.98 0.95
0.56 0.60 0.61 0.62 0.63 0.62 0.62 0.60 0.55 0.50 0.49 0.49 0.50 0.49 0.45 0.42 0.41 0.40 0.41 0.40 0.38 0.40 0.41 0.44 0.43 0.45 0.47 0.46 0.48 0.52 0.54 0.54 0.53 0.55 0.56 0.56 0.55 0.55 0.53 0.53 0.53 0.56 0.59 0.56 0.51 0.51 0.54 0.57 0.64 0.67 0.71 0.79 0.86 0.79 0.84 0.93 1.07 1.16 1.26 1.28 1.20 1.19 1.27 1.13 1.02 1.09 0.93 1.07 1.18 1.19 1.20 1.24 1.24 1.21 1.18 1.17 1.16 1.15 1.13 1.10 1.07 1.08 1.07 1.06 1.03
0.57 0.61 0.62 0.64 0.63 0.64 0.66 0.65 0.62 0.51 0.49 0.50 0.50 0.48 0.43 0.42 0.41 0.42 0.45 0.44 0.42 0.40 0.41 0.42 0.44 0.43 0.44 0.47 0.50 0.54 0.58 0.58 0.58 0.56 0.55 0.55 0.53 0.50 0.48 0.47 0.47 0.50 0.53 0.52 0.52 0.55 0.55 0.57 0.60 0.63 0.67 0.71 0.71 0.70 0.71 0.82 0.80 0.89 1.09 1.13 1.14 1.18 1.25 1.21 1.22 1.07 0.98 0.91 1.00 1.19 1.24 1.27 1.29 1.28 1.27 1.25 1.24 1.22 1.19 1.18 1.14 1.12 1.12 1.12 1.12
0.59 0.61 0.62 0.64 0.66 0.68 0.68 0.69 0.66 0.55 0.51 0.51 0.50 0.49 0.46 0.44 0.43 0.46 0.46 0.48 0.47 0.43 0.45 0.47 0.44 0.45 0.43 0.48 0.50 0.53 0.56 0.60 0.61 0.59 0.57 0.56 0.52 0.47 0.43 0.41 0.40 0.42 0.45 0.46 0.52 0.55 0.56 0.56 0.58 0.59 0.61 0.63 0.65 0.69 0.69 0.70 0.71 0.71 0.77 0.83 0.98 1.07 1.15 1.15 1.15 1.16 1.01 0.91 0.91 1.00 1.07 1.23 1.28 1.33 1.33 1.33 1.32 1.31 1.28 1.24 1.23 1.21 1.19 1.18 1.18
0.59 0.63 0.65 0.67 0.68 0.69 0.69 0.69 0.67 0.58 0.54 0.53 0.53 0.51 0.50 0.47 0.47 0.49 0.47 0.48 0.47 0.45 0.46 0.46 0.45 0.44 0.41 0.46 0.49 0.51 0.52 0.56 0.58 0.58 0.57 0.55 0.51 0.47 0.42 0.39 0.39 0.39 0.38 0.38 0.40 0.44 0.49 0.53 0.57 0.59 0.62 0.61 0.64 0.61 0.59 0.65 0.72 0.74 0.74 0.73 0.69 0.73 0.80 0.84 0.91 1.00 1.08 1.10 0.93 0.93 1.06 1.11 1.07 1.20 1.35 1.35 1.34 1.33 1.31 1.31 1.30 1.29 1.28 1.27 1.28
0.62 0.64 0.65 0.66 0.68 0.69 0.69 0.68 0.67 0.61 0.56 0.55 0.56 0.55 0.53 0.50 0.49 0.52 0.52 0.50 0.48 0.45 0.45 0.46 0.46 0.44 0.40 0.42 0.45 0.49 0.53 0.52 0.53 0.55 0.54 0.53 0.49 0.46 0.44 0.44 0.45 0.44 0.43 0.42 0.40 0.40 0.42 0.42 0.44 0.48 0.52 0.55 0.61 0.63 0.62 0.61 0.63 0.65 0.70 0.73 0.67 0.63 0.58 0.56 0.60 0.72 0.80 0.82 0.92 0.97 1.03 1.13 1.13 1.11 1.23 1.33 1.33 1.34 1.33 1.32 1.30 1.31 1.30 1.29 1.34
Wind_Speed
10 9 9 8 8 7 6 6 6 6 6 6 6 5 5 5 4 4 3 3 3 3 3 3 3 2 2 2 2 2 2 2 3 4 5 5 5 5 6 5 5 5 5 5 5 7 8 8 8 9 10 10 9 9 10 11 12 14 15 16 17 17 17 17 17 17 18 18 18 18 18 18 17 16 16 16 15 15 15 15 15 14 15 15 15
10 9 9 8 8 7 6 6 6 6 6 6 6 6 5 5 5 4 4 4 3 3 3 3 2 2 2 2 2 3 3 3 3 4 5 5 5 6 6 6 6 5 5 5 6 7 8 8 9 10 10 10 10 10 11 12 13 14 16 17 17 18 17 17 17 17 18 18 17 18 18 17 16 16 15 15 15 14 14 14 14 14 14 14 14
9 9 9 8 8 7 7 6 6 7 7 7 7 6 6 5 5 5 5 4 4 3 2 2 2 2 2 2 3 3 3 3 4 4 5 6 6 6 6 6 6 5 5 5 6 7 8 9 9 10 10 10 10 11 12 12 14 15 16 17 18 18 17 17 17 18 18 17 17 17 17 17 16 15 15 14 14 14 13 13 13 13 13 13 13
9 9 9 8 8 8 7 6 6 7 8 8 7 7 6 6 6 5 5 5 4 3 3 2 2 2 3 2 3 3 3 4 4 5 5 6 6 6 7 7 6 6 6 6 6 8 9 9 10 10 11 11 11 12 12 13 14 15 16 17 18 18 17 17 18 18 18 17 17 17 17 16 15 15 14 14 13 13 13 12 12 12 12 12 12
9 9 9 8 8 8 7 7 6 7 8 8 8 7 7 6 6 6 5 5 5 4 4 3 3 3 3 3 3 4 4 4 5 5 5 6 7 7 7 7 7 6 6 6 7 8 9 10 10 10 11 12 12 12 13 13 14 15 16 17 18 18 17 18 18 18 18 17 17 17 16 15 15 14 14 13 13 13 12 12 11 11 11 11 11
9 9 9 9 8 8 7 7 7 7 8 8 8 8 7 7 7 6 6 6 6 6 5 5 4 3 4 3 3 4 4 4 5 5 5 6 7 8 7 7 7 7 7 7 7 8 10 11 11 11 11 12 12 13 13 14 15 16 16 17 18 18 18 18 18 18 17 17 17 16 16 15 14 14 13 13 12 12 11 11 10 10 10 10 10
8 8 9 8 8 8 8 7 7 7 7 8 8 8 7 7 7 7 7 7 7 7 7 6 6 5 5 5 4 4 4 4 5 5 6 6 7 8 8 7 7 7 7 7 8 9 10 11 11 11 12 12 13 13 14 15 15 16 16 17 18 18 18 18 18 18 17 17 16 16 15 14 14 14 13 12 12 11 10 10 10 9 9 9 10
8 9 9 8 8 8 8 8 7 7 7 7 8 8 8 8 8 8 8 8 9 8 8 7 7 7 6 6 5 5 5 5 6 6 6 6 7 8 8 8 8 8 8 8 8 9 11 12 12 12 12 13 13 14 14 15 15 16 16 17 17 18 18 18 18 17 17 16 16 15 15 14 13 13 13 12 11 11 10 9 9 8 8 8 9
8 8 8 8 8 8 8 7 7 7 7 7 8 8 8 8 9 9 9 9 10 9 9 9 8 8 8 7 6 6 5 5 6 7 7 7 8 8 8 9 8 8 8 8 9 10 11 12 13 13 13 13 14 14 14 14 15 15 16 16 16 17 17 18 18 17 16 16 16 15 14 13 13 13 13 12 11 10 9 8 8 7 7 7 7
8 8 8 8 8 8 8 7 7 7 7 7 8 8 9 9 9 9 9 9 10 10 10 10 9 9 8 8 7 7 7 6 6 8 8 8 8 8 8 9 9 8 8 9 10 11 12 13 13 14 13 14 14 14 14 14 15 15 16 16 16 16 17 18 18 17 16 16 15 15 14 13 12 12 13 12 11 10 9 8 7 6 6 6 6
9 8 8 8 8 8 8 8 8 7 7 7 8 8 9 9 9 9 9 9 10 10 10 10 9 10 9 8 8 8 8 8 7 8 9 9 8 9 9 9 9 9 9 9 10 11 12 13 14 14 14 14 14 14 13 14 14 15 15 15 15 15 16 18 18 17 16 15 14 14 14 13 12 12 12 11 11 10 9 7 6 6 5 5 5
9 9 9 9 8 8 8 8 8 8 8 8 8 8 9 9 9 9 9 9 9 10 9 9 9 10 10 9 9 9 9 9 8 8 9 9 9 9 9 9 10 9 9 10 11 12 13 14 15 15 14 14 15 14 13 14 15 15 15 15 15 15 15 18 18 17 16 15 14 14 14 14 12 12 11 11 10 9 8 7 6 5 5 4 4
9 10 9 9 9 8 9 8 8 9 8 8 8 8 8 8 8 8 8 9 9 10 9 9 9 9 9 9 9 9 9 9 8 9 10 10 9 9 10 10 10 10 10 11 12 13 14 15 16 15 15 15 14 14 14 14 14 15 15 16 15 15 16 17 18 17 17 16 15 14 14 14 13 12 11 11 10 9 8 7 6 5 4 3 3
10 10 10 10 9 9 9 9 9 9 9 9 8 8 8 8 8 8 8 9 9 10 9 9 9 9 9 9 9 9 9 9 9 9 11 11 10 10 10 10 10 10 11 12 13 14 15 16 16 16 15 15 14 15 14 14 14 15 15 16 16 15 16 17 18 17 17 16 15 15 14 14 13 12 11 10 10 9 8 7 6 4 3 3 2
10 10 10 10 9 9 9 9 9 9 9 9 8 8 8 8 8 8 9 9 9 10 9 9 9 9 9 9 9 9 10 10 10 10 11 11 11 11 10 11 11 11 11 12 13 15 15 16 17 16 16 15 14 15 15 14 15 15 15 15 15 16 16 17 17 17 17 16 16 15 15 14 14 13 12 11 10 9 8 7 6 4 3 2 1
10 10 10 10 10 9 9 9 9 9 9 9 9 8 8 8 9 9 9 9 9 10 10 9 9 9 9 9 9 10 10 11 11 11 11 11 12 12 11 11 11 11 11 12 14 15 16 17 17 17 16 16 15 15 15 15 15 15 15 15 15 15 16 17 17 17 16 16 16 15 15 15 14 13 12 11 10 9 8 7 6 5 3 2 1
10 10 10 10 10 10 9 9 9 9 9 9 9 9 9 9 9 9 9 9 9 10 10 10 9 9 9 9 10 10 11 11 11 11 11 12 12 13 12 12 11 11 11 12 14 16 17 18 18 18 17 16 16 16 16 15 15 14 14 14 14 15 16 17 17 16 16 16 16 15 15 15 15 14 13 12 11 10 9 7 6 5 4 3 2
9 10 10 10 10 10 10 9 9 9 9 9 9 10 10 10 10 10 9 9 9 10 10 10 10 10 10 10 10 10 10 11 11 12 12 12 13 13 13 12 12 12 12 13 14 16 17 18 18 18 18 17 17 16 16 15 15 14 14 14 14 14 16 17 17 16 16 15 16 15 15 15 15 14 14 13 12 10 9 8 7 6 5 4 3
9 9 10 10 10 10 10 10 10 10 10 10 10 11 11 11 10 10 10 9 9 10 10 10 10 10 10 9 9 9 10 10 11 12 12 13 14 14 13 13 12 12 12 13 14 16 17 18 19 19 18 18 17 17 17 16 15 14 14 14 13 14 15 17 18 17 16 16 15 15 15 15 15 15 14 13 12 11 10 9 8 7 6 5 4
9 9 9 9 9 10 10 10 10 10 10 11 11 11 11 11 11 10 10 9 9 10 10 10 10 10 10 10 9 8 9 10 11 12 13 13 13 14 14 13 13 12 12 13 14 16 17 17 19 19 19 19 18 18 17 17 15 14 14 13 13 13 15 17 18 17 17 16 15 15 15 15 15 15 15 14 13 12 11 9 9 8 6 6 5
9 9 9 9 9 10 10 10 10 10 11 11 11 11 11 11 11 11 10 10 10 10 10 10 10 10 10 10 9 9 8 10 11 11 12 13 13 14 14 14 14 13 12 13 14 16 17 18 19 20 20 20 19 18 18 17 16 15 14 13 13 13 15 17 17 17 17 17 16 15 15 15 15 15 15 14 13 12 11 10 9 8 7 6 6
9 9 8 9 9 9 9 10 10 10 10 11 11 11 11 11 11 11 10 10 10 10 11 10 11 11 10 10 10 9 9 9 10 11 12 13 13 14 15 14 14 13 12 13 14 16 17 18 19 20 21 21 20 19 18 18 17 16 15 14 13 13 15 16 17 17 17 17 16 16 15 15 14 14 14 14 14 13 12 11 10 9 8 7 6
9 9 9 9 9 9 9 9 9 10 10 10 11 11 11 11 11 11 10 10 10 11 11 11 11 11 11 10 10 10 10 10 10 11 12 13 14 14 15 15 14 13 12 13 14 15 17 18 19 20 21 21 21 21 19 18 18 17 16 14 13 14 15 16 17 17 17 17 17 16 16 15 15 14 14 14 14 13 13 12 11 10 9 8 7
10 10 9 9 9 9 9 9 9 9 9 10 10 11 12 12 11 11 11 11 10 11 11 11 11 11 11 11 11 11 11 11 11 11 12 13 14 14 14 15 14 13 13 13 13 14 16 18 19 20 20 21 22 21 20 19 19 19 17 15 14 14 15 16 16 16 17 17 17 16 16 16 15 14 14 14 14 14 13 13 12 11 10 9 8
10 9 9 9 9 9 9 9 9 9 9 10 10 11 12 12 12 11 11 10 10 10 10 10 10 10 11 11 11 11 11 11 11 12 13 14 14 14 14 14 14 14 13 13 13 14 15 17 19 20 20 21 21 22 21 20 20 20 19 17 15 14 15 16 16 16 17 17 17 17 16 16 15 15 14 14 14 14 14 13 13 12 11 10 9
9 9 9 9 10 10 10 9 9 9 10 10 10 11 11 12 12 12 11 11 10 10 10 10 10 10 10 11 11 11 11 11 11 11 13 14 15 15 14 14 14 14 14 14 14 14 15 17 18 19 20 21 21 22 22 20 20 21 20 19 16 15 15 16 16 16 17 17 17 17 17 17 16 16 15 15 14 14 14 14 13 12 12 11 10
9 9 9 9 9 9 10 10 10 10 10 10 10 10 11 11 12 12 12 11 11 10 10 10 10 10 10 11 11 11 11 12 12 12 13 14 16 16 15 14 15 15 15 14 14 14 15 16 17 19 20 20 21 22 22 21 20 21 21 20 18 16 16 16 16 17 17 17 18 18 18 17 17 17 16 16 15 15 15 14 14 13 12 12 11
10 10 10 9 9 10 10 10 10 11 10 10 10 11 11 11 12 12 12 12 12 11 11 11 10 10 10 11 12 12 12 12 12 13 13 14 16 17 16 15 15 15 16 15 15 15 15 16 17 18 19 20 20 21 22 22 21 21 21 21 19 18 17 17 17 17 17 17 18 18 18 18 17 17 17 16 16 16 16 15 14 14 13 13 12
11 11 11 10 10 11 11 11 11 11 11 10 10 11 11 11 12 12 13 13 13 13 12 12 11 11 11 11 12 12 12 12 13 13 13 14 15 17 17 17 16 16 17 16 16 16 16 16 17 18 18 20 20 21 22 23 22 22 22 21 20 18 18 17 17 17 17 17 18 18 18 18 18 18 17 17 17 17 16 16 15 15 14 14 13
11 11 11 11 12 12 12 12 11 10 10 10 10 10 11 11 12 13 13 13 14 14 13 13 12 12 12 12 13 13 13 13 13 13 14 14 15 16 17 17 17 17 17 17 17 17 17 17 17 18 18 19 20 21 23 24 24 23 23 22 20 19 18 18 17 17 17 17 17 18 18 18 18 18 18 18 18 17 17 17 16 15 15 14 14
11 11 12 12 12 12 12 12 12 11 10 10 10 10 10 11 11 12 13 14 14 14 14 14 13 13 13 14 14 14 14 14 14 13 13 14 14 15 16 17 17 17 17 18 18 18 18 18 17 18 18 19 20 21 22 24 24 24 23 23 22 20 19 19 18 18 17 17 18 18 18 19 19 19 19 18 18 18 18 18 17 16 16 15 15
12 12 12 12 13 13 12 12 12 11 10 10 10 10 11 11 11 11 12 13 13 14 15 15 14 14 14 15 15 15 15 15 14 13 13 13 14 15 16 16 17 18 18 18 19 19 19 18 18 18 19 19 20 21 23 24 25 25 24 23 22 21 20 20 19 19 18 18 18 18 19 19 19 19 19 19 19 19 18 19 18 17 17 16 16
12 12 12 12 13 13 12 12 12 12 11 11 11 11 11 12 12 12 11 12 13 14 15 15 15 15 15 15 15 16 15 15 14 14 14 14 14 15 16 16 17 18 18 18 19 20 20 19 18 19 19 19 20 21 22 24 25 25 25 24 23 22 22 21 20 20 19 19 19 19 19 19 19 19 19 19 19 19 19 19 19 18 18 17 17
13 13 12 13 13 13 13 12 12 12 12 12 12 12 12 12 12 12 12 12 12 13 14 15 16 16 16 16 16 16 15 15 15 15 15 15 15 15 16 16 17 17 18 19 19 20 20 20 20 20 20 20 21 21 22 23 24 24 25 24 24 23 23 22 22 21 20 20 20 20 20 20 20 20 19 19 20 19 19 20 20 19 19 18 18
13 13 13 13 13 14 13 13 13 13 13 13 13 12 13 13 12 13 13 13 13 13 14 14 15 16 16 17 17 16 16 16 16 15 15 15 15 15 16 16 16 17 18 19 19 19 20 20 21 21 21 21 21 21 22 23 23 24 25 25 24 24 23 23 23 22 21 21 21 21 21 21 21 20 20 20 20 20 20 20 20 20 19 19 19
14 14 13 13 13 13 14 14 14 14 14 13 13 13 13 12 12 12 13 13 13 14 14 14 14 15 15 16 17 17 17 16 16 15 15 16 16 16 16 16 16 16 17 18 19 19 19 19 20 21 21 21 20 20 21 22 22 23 24 24 25 24 24 24 24 24 23 22 21 21 22 22 21 21 21 21 21 21 20 20 20 20 20 20 20
15 15 14 14 13 13 13 14 14 14 14 13 13 12 12 12 12 12 12 12 13 14 14 14 14 14 15 15 16 17 17 16 15 15 15 15 16 16 16 16 16 16 16 17 18 18 17 18 19 20 21 21 20 20 21 21 22 22 22 23 24 24 24 24 24 25 25 24 23 22 23 23 22 22 22 22 22 21 21 21 21 21 21 21 21
15 15 14 14 13 13 14 14 14 13 13 12 12 11 11 11 11 11 11 12 12 12 13 13 14 14 14 15 15 16 16 16 15 15 14 14 15 16 16 17 16 16 15 16 17 17 16 15 17 18 20 21 21 21 21 21 22 22 22 22 23 23 24 24 24 24 25 25 25 24 24 24 24 23 23 23 23 23 22 22 22 21 21 22 21
15 14 14 13 13 13 13 13 12 12 12 12 11 10 10 10 10 10 10 11 11 12 12 13 14 14 15 15 15 15 15 16 16 15 14 14 14 15 16 17 17 16 16 16 17 17 16 15 15 17 18 20 20 21 21 21 22 22 22 22 22 23 23 24 24 24 24 24 25 26 25 25 25 25 25 25 24 24 24 23 23 22 22 22 22
15 14 14 14 14 13 12 12 12 12 11 11 11 10 10 10 10 10 10 10 10 11 11 12 13 14 14 15 15 15 15 16 16 16 15 15 15 15 16 17 17 17 17 17 17 17 17 16 15 16 17 18 19 20 20 20 21 22 22 22 22 23 23 23 24 24 24 24 25 25 26 26 26 26 26 26 26 26 25 25 24 24 24 23 24
16 15 14 15 14 13 13 12 12 12 12 12 12 11 11 11 11 11 10 10 10 10 10 11 12 13 14 14 15 15 15 16 16 16 16 15 15 15 16 17 18 18 17 17 17 17 18 17 16 16 17 17 18 19 20 20 20 21 22 21 22 22 23 23 24 24 25 25 25 25 26 26 26 26 27 27 27 27 27 26 26 26 25 25 25
16 16 15 15 15 14 14 13 12 12 12 12 12 12 12 12 12 11 11 10 10 9 10 10 10 11 11 12 13 14 14 15 16 16 16 16 16 15 16 16 17 18 18 18 17 17 18 18 17 17 18 18 18 19 20 20 20 21 22 22 22 23 23 24 24 24 25 25 25 26 26 26 27 27 27 27 27 27 28 28 28 27 27 26 26
17 16 16 16 15 15 14 14 13 13 13 13 13 13 13 12 12 11 11 11 10 9 9 9 9 9 10 11 11 12 13 14 14 15 16 16 16 16 16 16 16 17 17 18 18 17 18 18 18 19 19 19 19 20 21 21 21 21 21 22 22 23 23 24 25 25 25 25 25 26 26 26 27 27 28 27 27 28 28 28 28 28 28 28 28
17 16 16 16 16 16 16 15 14 14 14 14 14 14 13 13 12 11 11 10 10 9 9 8 8 8 9 9 10 11 12 13 13 14 14 15 15 16 17 17 17 17 17 18 18 18 18 18 19 19 20 21 20 20 21 22 22 22 21 21 22 23 23 24 25 26 26 25 26 26 26 26 27 27 27 27 28 28 29 29 29 29 29 29 29
18 18 17 17 17 17 16 16 15 14 14 14 14 14 13 12 12 11 11 11 10 9 9 8 8 8 8 9 9 9 10 11 12 13 14 14 14 15 16 17 17 17 17 18 18 18 18 18 19 19 19 20 21 21 21 22 24 24 22 22 22 23 24 24 25 26 26 27 27 27 27 27 27 27 27 27 27 28 29 29 30 30 30 30 29
19 19 18 17 17 17 17 16 15 15 15 14 14 14 14 13 13 12 12 11 11 10 9 9 9 9 8 8 8 8 8 9 10 12 12 13 14 14 15 15 16 17 17 17 18 18 18 18 19 19 19 19 20 21 22 23 24 25 24 24 23 23 23 23 25 25 26 27 27 28 28 28 28 28 28 27 27 27 28 29 29 30 30 30 30
20 19 18 18 17 17 17 16 16 16 15 15 15 15 15 14 14 13 13 12 12 11 11 10 10 10 9 9 9 8 8 8 9 9 10 11 12 13 13 14 15 16 16 17 17 18 18 18 18 19 19 20 20 20 21 22 23 24 25 25 25 24 24 23 24 25 25 26 27 28 29 29 29 29 29 28 27 27 27 27 28 29 29 30 30
20 19 19 18 18 18 17 17 17 16 16 16 16 16 15 15 14 14 14 13 12 12 12 11 11 10 10 10 10 10 9 9 9 9 9 10 10 11 12 13 14 15 16 16 17 17 18 18 19 19 19 20 20 20 21 21 22 23 24 25 25 26 27 26 26 26 26 26 26 27 28 29 29 29 29 29 28 28 28 27 27 28 28 29 29
20 20 20 19 18 18 18 17 17 17 16 16 16 16 16 15 15 15 15 14 13 13 13 12 12 11 11 11 11 11 11 10 10 10 10 10 10 10 11 12 13 13 14 15 16 17 17 18 19 19 20 20 21 21 21 22 22 23 24 25 25 26 27 27 27 27 28 28 28 28 28 28 29 29 29 29 29 29 29 28 28 28 29 29 29
20 20 20 20 19 18 18 18 18 18 17 17 17 17 16 16 15 15 15 15 14 14 14 13 13 12 12 12 12 12 12 12 12 11 11 11 11 10 11 11 12 13 13 14 15 16 16 17 18 19 20 20 21 22 22 23 23 23 24 25 26 26 26 27 27 27 28 29 30 30 30 30 29 29 29 29 30 30 30 30 29 29 29 29 29
19 19 20 20 19 19 19 19 18 18 17 17 17 17 17 16 16 16 16 16 15 15 15 14 14 14 13 13 13 13 13 13 13 13 13 12 12 12 12 12 12 13 13 14 15 15 16 17 18 18 19 20 21 22 22 23 24 24 24 25 26 26 27 27 28 28 28 28 29 31 32 32 31 30 30 30 31 31 31 31 31 30 31 30 30
Wind_Direction
249 253 256 257 258 258 259 254 248 244 239 237 240 246 251 255 259 266 266 268 289 310 319 322 319 306 292 269 246 227 215 207 197 191 192 191 186 180 176 175 177 176 174 172 172 172 171 172 173 172 168 165 162 158 156 156 156 156 157 158 156 154 152 151 149 149 148 144 140 137 134 131 128 126 123 120 117 114 110 105 101 96 92 87 83
244 248 251 252 255 256 256 252 247 242 238 237 239 244 249 253 258 265 265 267 278 298 315 318 316 306 293 269 244 230 220 206 194 191 190 190 187 181 177 176 177 177 174 171 169 170 169 170 172 172 169 166 162 158 156 156 157 157 158 159 158 156 154 154 153 153 151 147 142 139 137 134 131 129 126 122 120 116 111 107 102 97 93 88 83
242 245 248 249 252 255 254 251 250 244 240 239 238 242 248 252 258 264 265 264 264 273 296 311 312 300 288 272 246 229 220 206 196 197 195 191 188 182 180 179 181 181 178 174 170 170 170 169 170 170 168 165 161 158 157 157 158 158 159 159 159 157 157 157 156 156 154 150 146 142 140 137 135 132 128 125 122 118 113 109 104 98 93 88 83
243 243 245 247 251 253 254 253 253 246 240 238 238 241 245 249 255 260 259 256 254 258 267 287 298 294 287 272 246 232 223 210 198 199 201 197 190 185 186 187 188 186 183 180 176 174 173 171 170 168 167 164 160 158 157 158 158 158 159 160 159 159 159 160 160 158 155 152 148 145 142 141 138 135 131 129 126 121 116 111 105 100 94 88 83
243 244 245 248 252 252 254 253 251 245 239 236 238 240 240 245 249 254 254 251 252 257 263 268 277 283 282 269 251 238 227 217 205 201 205 205 199 193 191 193 193 190 187 185 182 180 177 174 171 168 167 164 161 158 158 159 159 158 159 159 160 159 161 162 162 159 155 153 151 147 145 144 143 139 135 133 130 125 120 114 108 101 96 90 84
242 246 246 249 251 252 253 252 250 246 241 238 239 240 239 242 247 251 253 252 252 257 262 261 264 271 273 264 252 239 226 220 213 208 208 210 207 200 196 197 197 194 191 188 186 184 180 177 173 170 168 166 162 159 158 159 159 159 158 160 161 161 162 163 162 160 157 155 153 151 149 148 147 144 140 138 135 130 124 118 111 104 97 91 84
243 246 245 247 248 250 251 250 251 247 245 242 241 242 242 244 247 249 251 253 251 254 260 259 259 261 266 262 251 240 229 222 218 214 211 210 209 205 201 198 199 199 195 191 188 185 183 179 174 171 170 167 164 160 159 160 160 160 159 161 163 163 164 165 164 162 160 159 157 155 153 152 151 148 145 143 140 136 130 123 115 106 99 91 84
244 244 242 244 245 246 248 248 248 247 247 247 244 244 246 247 247 248 251 253 252 253 256 255 256 257 259 257 249 241 235 228 222 217 213 209 209 206 203 200 200 202 199 193 190 186 184 181 176 173 172 168 165 162 161 161 161 161 162 163 166 167 169 169 168 166 163 162 161 159 156 155 155 153 150 148 145 141 135 129 120 111 102 92 84
242 241 237 239 241 243 246 248 248 248 250 251 250 248 249 250 248 249 252 254 253 252 253 253 255 256 255 252 248 242 237 233 225 218 214 211 210 206 204 203 200 201 200 196 192 187 184 183 178 175 173 170 167 165 164 163 163 164 165 166 169 171 173 174 172 170 167 165 164 163 161 159 158 157 154 152 150 147 141 134 126 116 105 95 85
238 235 233 237 239 242 245 247 248 252 254 255 255 252 252 252 252 253 254 254 253 252 252 252 253 254 253 251 246 242 239 234 228 218 213 212 209 205 204 205 202 201 201 200 194 188 185 184 180 176 175 173 171 168 167 167 166 168 168 169 173 175 178 178 177 174 171 168 168 168 166 164 163 160 158 158 157 154 148 140 132 122 110 99 87
234 231 233 236 237 242 244 246 250 254 258 260 260 257 255 254 256 255 255 254 252 251 251 250 250 251 252 251 245 241 240 236 231 221 213 210 207 204 205 206 205 203 204 201 195 188 186 186 182 179 179 178 176 174 172 172 171 172 172 173 176 180 182 182 181 178 175 173 173 172 170 168 167 165 163 163 162 160 154 147 139 128 116 103 88
229 230 232 235 238 243 245 248 252 255 259 262 263 261 259 257 256 253 254 255 251 249 249 250 250 250 251 251 246 239 238 236 232 224 214 208 204 203 206 207 206 205 206 203 196 190 187 187 184 182 182 181 182 181 179 177 175 175 176 176 178 182 184 183 183 182 179 178 177 177 174 173 173 170 168 166 166 164 160 154 145 135 123 108 91
226 231 233 236 239 243 246 250 254 257 260 263 265 264 262 259 254 251 254 255 251 250 249 251 252 251 252 250 246 237 233 233 230 225 216 210 206 206 207 208 207 206 207 204 198 193 190 189 187 185 184 184 185 186 184 182 180 179 181 181 181 183 184 183 185 184 183 182 181 181 180 178 178 177 174 171 169 168 165 160 153 145 133 116 95
225 231 234 238 241 244 247 251 256 259 260 262 263 262 261 257 253 252 254 253 250 251 251 254 254 253 252 249 243 236 230 229 227 222 217 213 212 211 209 210 208 207 206 204 200 195 192 191 190 188 187 188 188 188 187 185 184 183 184 184 183 184 186 186 187 186 186 186 185 185 184 182 182 182 181 178 175 173 171 168 164 158 148 131 102
226 229 234 239 242 245 246 252 257 258 259 260 260 259 257 254 251 252 254 252 250 252 254 256 255 254 251 247 241 237 232 228 226 223 218 215 215 215 212 211 209 206 207 205 202 198 195 193 192 191 190 190 190 190 189 188 187 185 185 185 185 187 190 190 189 189 190 190 189 188 188 187 186 187 186 185 184 182 180 179 176 174 170 156 124
228 229 235 240 244 245 245 251 256 257 258 258 259 257 254 252 251 253 253 252 252 253 255 255 253 252 248 244 241 239 234 228 227 227 222 218 217 217 214 213 209 205 207 206 203 200 198 195 194 194 193 192 193 193 191 190 189 187 187 188 188 191 194 194 192 192 194 194 193 192 194 193 192 192 191 191 192 192 191 189 188 189 190 189 178
228 232 237 241 244 245 246 250 255 256 255 256 257 255 252 251 250 253 254 253 253 254 254 252 249 247 243 242 241 239 236 230 227 228 226 223 219 216 215 213 209 205 206 207 204 202 199 197 196 196 196 195 195 195 194 193 191 189 190 191 191 194 197 195 193 195 197 199 198 197 198 198 197 197 197 197 198 199 200 199 199 202 205 209 215
231 236 239 242 244 246 249 252 255 256 254 252 253 253 252 251 251 253 254 254 253 253 253 250 246 242 238 238 239 238 235 231 228 227 227 225 218 214 213 213 208 204 206 207 205 202 200 199 198 198 198 198 198 197 196 196 193 192 193 194 194 197 198 194 195 198 199 201 201 200 200 201 202 202 203 202 203 204 206 207 208 211 215 220 229
235 240 244 247 249 250 252 254 256 256 253 251 250 251 251 252 253 253 254 255 254 253 252 248 243 239 235 235 236 236 232 229 228 227 226 223 217 212 212 212 207 204 206 207 205 202 201 201 200 200 200 201 200 199 199 198 196 195 195 195 196 199 198 195 196 199 200 201 202 203 203 204 206 207 207 207 207 209 211 212 214 218 223 228 238
240 245 249 251 253 254 255 257 257 256 254 252 250 250 251 252 253 253 254 254 254 253 251 247 242 237 235 233 233 233 231 230 228 228 225 221 217 212 211 210 205 204 207 208 206 203 202 202 202 201 201 202 202 201 201 201 200 198 196 195 196 199 199 197 197 199 202 204 205 206 206 207 209 210 210 210 212 213 215 217 218 223 229 235 242
243 247 251 254 255 256 256 256 257 256 256 255 252 251 251 252 252 253 253 254 253 250 248 245 242 239 236 233 233 235 235 233 231 228 223 218 215 211 209 207 204 204 207 209 208 207 206 205 203 202 202 203 203 203 203 203 202 200 198 197 197 199 200 199 199 200 203 206 207 207 208 210 211 212 213 213 215 216 218 219 221 226 233 239 246
242 246 252 255 256 256 255 255 256 257 258 258 255 252 251 251 252 252 252 253 251 247 246 244 242 241 239 236 235 237 238 236 232 226 220 216 213 210 209 206 203 204 207 211 210 209 209 207 205 204 204 204 204 204 204 204 204 203 201 199 198 199 201 202 202 203 205 207 208 208 209 210 211 214 216 215 216 218 221 222 223 229 234 240 246
241 247 252 255 257 257 256 256 256 256 257 259 257 255 252 251 251 251 251 250 249 247 246 245 244 242 242 241 238 237 238 237 233 226 219 215 212 210 208 206 204 205 208 212 212 211 210 209 207 206 205 206 206 205 206 206 205 205 204 202 201 201 202 204 205 206 208 209 210 210 210 211 212 215 217 217 217 219 222 224 226 231 235 240 246
240 246 250 255 258 259 259 257 255 254 256 257 256 255 252 250 250 250 250 250 249 247 247 247 247 244 243 243 240 237 236 236 233 227 220 214 212 211 209 208 208 209 210 213 214 213 211 210 208 207 207 207 207 206 207 207 207 207 206 205 204 204 204 205 207 209 211 212 212 212 212 212 214 216 218 220 220 220 222 226 230 233 236 240 245
239 244 247 251 254 257 257 253 253 252 255 256 257 256 253 251 249 248 249 249 249 247 248 249 247 245 243 242 239 237 237 236 233 229 224 217 213 212 211 212 212 212 213 215 216 215 213 211 210 208 208 208 207 207 208 209 209 209 209 208 206 206 207 207 209 211 213 215 214 214 214 214 216 218 219 220 222 221 223 227 231 234 237 240 244
241 244 244 248 249 252 254 251 252 253 255 256 256 256 254 253 250 248 248 248 248 247 248 247 245 242 241 240 238 237 237 236 235 231 227 221 216 214 214 215 215 214 215 216 219 219 215 212 211 210 209 209 208 207 208 209 210 210 211 211 208 208 210 211 212 214 216 217 216 216 217 217 218 220 220 221 223 223 224 226 230 234 237 240 244
244 246 245 247 247 250 253 254 256 256 257 256 257 256 254 254 252 249 248 248 248 247 248 247 243 240 238 238 237 236 237 238 237 233 229 224 220 218 217 219 219 218 218 218 220 220 216 211 210 211 211 211 211 210 209 210 211 210 212 213 212 211 212 213 215 217 218 219 219 219 221 221 220 222 223 224 224 225 226 228 231 234 237 241 244
244 246 248 250 250 252 254 257 258 259 257 255 257 255 254 253 251 250 249 249 248 247 248 247 243 240 238 237 237 237 237 239 238 233 230 226 224 222 221 222 223 222 220 220 220 220 217 214 212 213 214 214 214 213 212 212 212 210 211 214 215 215 215 215 216 219 221 221 222 223 223 224 224 224 225 226 227 227 229 230 233 235 239 241 244
241 244 249 252 254 256 258 260 260 259 256 254 256 255 254 253 252 251 251 249 248 247 246 246 244 241 240 239 239 239 239 241 240 233 229 227 226 223 223 224 226 225 222 222 222 221 219 218 217 216 217 218 217 216 215 214 212 212 213 215 216 216 216 217 217 220 222 223 225 226 225 225 226 227 228 229 229 230 231 232 233 235 239 242 244
240 245 250 253 256 258 261 264 262 258 255 254 255 254 254 253 252 251 251 250 248 247 245 245 245 244 243 241 241 242 241 243 243 236 230 229 227 225 225 226 226 226 224 225 224 223 222 222 222 221 220 220 220 219 217 216 214 213 215 216 217 217 218 218 218 220 223 224 225 227 228 227 228 229 230 231 232 233 234 234 235 237 239 242 244
242 247 252 255 257 258 262 263 261 257 254 253 254 255 254 252 252 251 251 250 249 247 245 245 246 245 245 244 244 244 243 243 243 239 233 231 229 228 227 227 227 227 226 226 225 223 222 223 225 225 223 223 223 222 220 218 216 215 216 218 219 219 220 220 219 220 223 225 227 228 229 230 230 230 232 233 235 236 237 236 237 239 241 242 245
244 248 254 258 258 260 263 261 257 255 253 252 252 253 253 253 253 253 252 252 251 249 247 246 246 245 246 245 246 245 245 244 242 239 236 233 231 229 228 228 228 227 227 227 226 224 223 223 226 227 225 224 225 224 222 219 218 217 219 221 221 221 221 222 221 222 224 226 228 229 230 232 232 233 234 235 237 238 239 239 239 242 242 243 245
246 250 256 259 260 261 261 259 255 253 253 252 252 251 252 254 254 253 252 252 252 251 249 248 246 245 245 246 246 246 246 245 243 241 239 235 232 231 229 229 229 228 226 227 227 226 225 224 227 230 229 228 226 224 223 220 219 220 221 222 224 224 223 223 224 224 225 227 228 229 231 232 233 234 236 237 238 239 240 240 241 244 244 244 245
248 253 257 259 260 261 260 258 254 253 254 254 254 253 253 254 255 255 253 252 253 253 251 249 248 246 244 245 246 246 246 246 245 243 240 237 234 232 230 230 230 228 227 227 227 228 228 228 231 234 233 233 230 226 224 221 219 221 222 223 225 226 226 226 226 226 227 227 228 230 231 232 233 235 236 237 238 239 240 240 241 243 244 245 246
249 254 258 260 260 260 260 258 255 253 255 256 257 255 254 254 254 256 255 253 254 255 253 251 250 249 246 245 244 245 245 246 246 245 242 239 236 233 232 231 229 229 229 228 228 229 229 230 234 235 234 234 232 228 225 222 221 222 223 225 226 227 228 229 229 229 229 229 229 230 231 232 232 234 236 237 238 239 240 240 240 242 244 246 247
248 253 258 261 261 260 259 257 254 254 257 257 256 255 254 252 252 255 255 255 256 257 254 251 251 251 249 245 243 243 244 244 245 246 245 242 238 235 233 232 230 230 231 229 228 228 230 234 235 234 232 232 231 228 224 222 223 223 224 226 228 229 231 232 231 231 231 231 232 232 232 232 234 234 236 237 237 238 240 240 241 242 244 246 248
250 254 258 261 260 258 258 256 254 255 256 255 254 254 253 251 250 253 255 256 258 259 254 250 249 250 251 249 244 242 242 242 243 246 247 244 240 237 234 233 231 230 230 229 227 227 233 237 235 232 230 230 230 228 224 223 224 226 226 226 228 230 232 234 234 233 233 234 235 234 234 234 235 236 237 238 238 239 240 241 242 243 245 246 248
251 253 258 259 257 257 257 255 253 253 252 251 251 251 251 250 252 255 257 259 260 259 254 250 248 249 251 250 246 242 242 241 240 243 244 243 241 238 236 234 232 230 230 229 227 226 232 236 232 230 228 228 229 228 226 226 226 228 229 228 229 231 233 235 236 236 236 237 237 236 236 236 237 238 238 239 240 241 242 242 243 244 246 247 248
249 252 255 256 255 258 258 252 250 250 248 247 247 249 251 252 254 258 261 262 261 259 255 252 249 249 250 250 248 245 242 240 239 240 240 239 239 239 236 233 233 232 231 230 228 228 231 234 233 230 229 228 229 229 229 230 229 229 231 231 231 232 233 235 236 237 237 238 239 238 238 238 238 239 240 241 241 242 243 244 245 246 247 248 249
247 250 252 253 254 255 255 252 249 246 244 244 245 249 251 252 254 256 261 263 262 260 259 255 251 250 250 249 248 245 243 241 240 239 239 239 240 240 238 235 235 234 233 233 231 231 232 236 237 233 230 229 229 230 231 233 232 231 231 233 234 234 235 235 236 238 239 240 240 239 239 240 240 240 241 242 243 244 245 246 247 248 249 250 250
245 247 249 250 252 251 251 252 250 245 243 244 246 246 248 250 249 250 257 261 260 260 261 259 256 253 251 249 247 245 243 243 242 241 240 240 240 240 239 237 237 236 235 235 233 233 234 237 239 236 233 232 232 231 232 233 235 234 233 234 236 236 236 236 237 239 240 241 241 241 241 241 241 242 242 243 244 245 247 248 249 249 250 251 252
240 244 246 247 250 250 250 251 251 247 243 244 246 246 247 248 246 246 253 257 257 257 259 260 259 256 252 248 247 245 244 244 243 242 242 241 241 240 239 239 239 238 236 236 235 237 238 239 241 240 237 236 236 235 234 235 237 237 236 237 239 239 238 238 238 240 241 241 242 243 243 243 243 243 243 244 245 246 248 249 250 250 251 252 252
238 242 244 245 248 249 249 251 253 250 244 245 247 247 248 247 245 248 252 255 256 256 258 259 260 259 255 249 246 245 245 244 243 242 242 242 241 241 240 240 240 239 238 237 238 241 243 243 244 244 242 241 241 240 238 236 237 239 239 240 243 242 241 241 240 240 241 242 242 244 245 245 245 245 245 246 247 247 248 249 250 251 251 252 253
238 241 242 244 247 247 247 249 253 252 246 247 249 248 247 246 245 248 252 255 255 255 259 261 261 260 257 254 249 247 246 244 242 240 240 241 242 242 242 242 242 242 242 241 242 244 246 246 247 247 246 245 244 243 241 238 239 240 241 244 246 245 244 244 242 242 242 243 244 245 246 246 245 245 246 247 248 248 249 249 250 250 251 251 252
237 240 242 243 246 246 246 248 252 252 248 248 247 245 244 244 244 247 252 254 252 252 256 258 258 256 255 256 253 250 248 244 241 241 242 243 243 243 243 243 243 244 244 245 246 247 247 247 247 247 247 247 247 245 243 242 241 241 243 246 247 248 248 246 244 245 245 245 246 246 246 246 246 246 247 248 249 249 250 250 250 251 251 251 252
237 240 242 243 244 245 245 248 252 252 248 247 245 243 244 244 244 246 248 249 247 248 250 251 251 251 252 254 252 251 249 246 242 241 243 244 244 244 244 243 243 244 245 246 247 248 248 248 248 248 247 247 248 247 245 245 244 243 244 247 247 249 251 249 246 247 247 247 247 247 247 247 247 247 247 248 249 249 250 250 251 251 251 251 252
238 239 241 243 243 244 246 248 251 250 248 247 245 244 245 246 246 246 246 244 243 245 247 248 248 249 251 252 251 251 250 249 247 244 243 243 243 245 244 244 244 244 245 246 248 249 250 250 250 249 249 248 248 248 247 247 246 246 246 248 249 249 250 250 248 248 249 249 248 248 248 248 248 248 248 248 248 249 250 250 251 252 251 252 253
237 238 240 242 242 243 245 249 250 249 247 247 246 245 245 245 245 245 243 242 241 242 244 245 247 248 249 251 252 252 252 250 248 248 247 245 245 246 246 246 246 246 247 247 249 250 251 252 252 251 251 250 250 250 249 249 248 248 249 250 251 250 250 252 251 249 249 250 250 250 249 249 248 248 248 248 249 249 250 251 252 253 252 253 253
236 236 239 241 242 242 244 248 248 247 246 247 246 245 244 244 243 242 242 242 242 242 244 246 247 247 247 249 250 252 252 250 247 247 247 247 248 249 249 249 249 250 250 250 251 252 252 253 253 253 253 253 252 251 251 251 250 250 251 251 252 252 252 253 253 251 250 251 251 251 250 250 249 249 248 248 249 250 252 252 253 254 253 254 254
237 238 240 242 242 242 244 246 247 245 246 247 245 243 243 243 242 241 242 242 242 243 246 248 248 248 248 248 249 249 250 250 249 248 248 249 249 250 251 252 253 253 253 254 253 254 254 254 255 255 255 256 256 255 254 254 253 253 253 253 253 253 253 253 253 253 253 253 253 252 250 250 249 249 249 248 249 251 252 253 254 254 254 254 255
239 240 242 242 242 243 243 245 245 244 245 247 244 241 242 243 242 242 243 243 243 245 247 249 251 251 251 250 250 249 249 250 250 251 251 251 251 252 253 254 256 256 256 257 257 257 257 257 257 257 257 257 257 257 257 257 256 255 255 255 254 254 254 254 254 254 254 255 255 253 250 249 249 249 249 249 250 251 252 253 253 253 254 255 255